Philadelphia, PA

2:27 AM EDT on April 25, 2017 (GMT -0400)
Philadelphia International

Weather History for KPHL - October, 2013

Change the Weather History Date:

Friday, October 25, 2013

  Actual Average Record
Temperature  
Mean Temperature 46 °F 54 °F  
Max Temperature 55 °F 64 °F 76 °F (1993)
Min Temperature 37 °F 45 °F 25 °F (1962)
Degree Days  
Heating Degree Days 19 11  
Month to date heating degree days 119 183  
Since 1 July heating degree days 155 221  
Cooling Degree Days 0 0  
Month to date cooling degree days 65 19  
Year to date cooling degree days 1411 1297  
Moisture  
Dew Point 29 °F    
Average Humidity 53    
Maximum Humidity 70    
Minimum Humidity 35    
Precipitation  
Precipitation 0.00 in 0.10 in 3.82 in (1980)
Month to date precipitation 2.41 2.60  
Year to date precipitation 47.91 34.40  
Snow  
Snow 0.00 in 0.00 in 0.00 in ()
Month to date snowfall 0.0 0.0  
Since 1 July snowfall 0.0 0.0  
Since 1 September snowfall 0.0 0.0  
Snow Depth 0.00 in    
Sea Level Pressure  
Sea Level Pressure 30.19 in    
Wind  
Wind Speed 10 mph (West)    
Max Wind Speed 20 mph    
Max Gust Speed 26 mph    
Visibility 10 miles    
Events      
T = Trace of Precipitation, MM = Missing Value Source: NWS Daily Summary

Daily Weather History Graph

Daily Weather History Graph

Search for Another Location

Airport or City:

Trip Planner

Search our weather history database for the weather conditions in past years. The results will help you decide how hot, cold, wet, or windy it might be!

Date:

Astronomy

Oct. 25, 2013 Rise Set
Actual Time 7:22 AM EDT 6:07 PM EDT
Civil Twilight 6:54 AM EDT 6:34 PM EDT
Nautical Twilight 6:22 AM EDT 7:06 PM EDT
Astronomical Twilight 5:51 AM EDT 7:37 PM EDT
Moon 11:24 PM EDT 1:01 PM EDT
Length of Visible Light 11h 40m
Length of Day
10h 44m
Waning Gibbous, 62% of the Moon is Illuminated
Oct 25
Waning Gibbous
Oct 26
Last Quarter
Nov 3
New
Nov 10
First Quarter
Nov 17
Full

Hourly Weather History & Observations

Time (EDT) Temp. Windchill Dew Point Humidity Pressure Visibility Wind Dir Wind Speed Gust Speed Precip Events Conditions
12:54 AM 41.0 °F 35.2 °F 27.0 °F 57% 30.10 in 10.0 mi West 9.2 mph - N/A   Clear
1:54 AM 39.9 °F 33.4 °F 28.0 °F 63% 30.10 in 10.0 mi West 10.4 mph - N/A   Clear
2:54 AM 37.9 °F 31.5 °F 27.0 °F 65% 30.11 in 10.0 mi West 9.2 mph - 0.00 in   Partly Cloudy
3:54 AM 39.0 °F 33.4 °F 28.0 °F 65% 30.11 in 10.0 mi WSW 8.1 mph - N/A   Partly Cloudy
4:54 AM 37.9 °F 32.7 °F 28.0 °F 68% 30.13 in 10.0 mi WSW 6.9 mph - N/A   Clear
5:54 AM 39.0 °F 32.8 °F 28.0 °F 65% 30.14 in 10.0 mi WSW 9.2 mph - N/A   Clear
6:54 AM 39.0 °F 35.7 °F 28.0 °F 65% 30.15 in 10.0 mi WSW 4.6 mph - N/A   Partly Cloudy
7:54 AM 39.0 °F - 28.9 °F 67% 30.18 in 10.0 mi Calm Calm - N/A   Partly Cloudy
8:54 AM 42.1 °F 37.7 °F 30.0 °F 62% 30.20 in 10.0 mi WSW 6.9 mph - N/A   Partly Cloudy
9:54 AM 45.0 °F 41.2 °F 30.0 °F 56% 30.21 in 10.0 mi West 6.9 mph - N/A   Scattered Clouds
10:54 AM 48.9 °F - 30.9 °F 50% 30.21 in 10.0 mi NW 8.1 mph - N/A   Scattered Clouds
11:54 AM 51.1 °F - 30.9 °F 46% 30.21 in 10.0 mi West 12.7 mph - N/A   Scattered Clouds
12:54 PM 52.0 °F - 30.9 °F 45% 30.19 in 10.0 mi NW 12.7 mph - N/A   Scattered Clouds
1:54 PM 53.1 °F - 30.0 °F 41% 30.18 in 10.0 mi WNW 12.7 mph 21.9 mph N/A   Scattered Clouds
2:54 PM 55.0 °F - 28.9 °F 37% 30.18 in 10.0 mi NW 18.4 mph 21.9 mph N/A   Scattered Clouds
3:54 PM 55.0 °F - 28.9 °F 37% 30.19 in 10.0 mi NW 12.7 mph 23.0 mph N/A   Mostly Cloudy
4:54 PM 54.0 °F - 28.9 °F 38% 30.20 in 10.0 mi WNW 12.7 mph - N/A   Scattered Clouds
5:54 PM 52.0 °F - 28.9 °F 41% 30.21 in 10.0 mi NW 15.0 mph - N/A   Partly Cloudy
6:54 PM 51.1 °F - 30.0 °F 44% 30.24 in 10.0 mi West 10.4 mph - N/A   Partly Cloudy
7:54 PM 48.0 °F - 32.0 °F 54% 30.25 in 10.0 mi WSW 8.1 mph - N/A   Clear
8:54 PM 48.0 °F - 30.9 °F 52% 30.25 in 10.0 mi West 9.2 mph - N/A   Clear
9:54 PM 46.0 °F 41.0 °F 30.9 °F 56% 30.27 in 10.0 mi West 10.4 mph - N/A   Clear
10:54 PM 46.0 °F 40.6 °F 30.0 °F 54% 30.28 in 10.0 mi West 11.5 mph - N/A   Clear
11:54 PM 42.1 °F 37.1 °F 30.0 °F 62% 30.28 in 10.0 mi SW 8.1 mph - N/A   Clear